Clarksburg, WV

12:13 AM EDT on May 25, 2017 (GMT -0400)
Benedum

Weather History for KCKB - February, 2013

Change the Weather History Date:

Saturday, February 2, 2013

  Actual Average Record
Temperature  
Mean Temperature 16 °F 32 °F  
Max Temperature 27 °F 41 °F 71 °F (1988)
Min Temperature 5 °F 23 °F -8 °F (1936)
Degree Days  
Heating Degree Days 49 33  
Month to date heating degree days 66  
Since 1 July heating degree days 3158  
Cooling Degree Days 0 0  
Month to date cooling degree days 0  
Year to date cooling degree days 0  
Moisture  
Dew Point 16 °F    
Average Humidity 80    
Maximum Humidity 93    
Minimum Humidity 58    
Precipitation  
Precipitation 0.00 in 0.12 in 1.16 in (1981)
Month to date precipitation 0.23  
Year to date precipitation 3.68  
Sea Level Pressure  
Sea Level Pressure 30.08 in    
Wind  
Wind Speed 5 mph (SW)    
Max Wind Speed 17 mph    
Max Gust Speed 16 mph    
Visibility 5 miles    
Events Snow    
T = Trace of Precipitation, MM = Missing Value Source: NWS Daily Summary

Daily Weather History Graph

Daily Weather History Graph

Search for Another Location

Airport or City:

Trip Planner

Search our weather history database for the weather conditions in past years. The results will help you decide how hot, cold, wet, or windy it might be!

Date:

Astronomy

Feb. 02, 2013 Rise Set
Actual Time 7:26 AM EST 5:43 PM EST
Civil Twilight 6:58 AM EST 6:11 PM EST
Nautical Twilight 6:26 AM EST 6:43 PM EST
Astronomical Twilight 5:55 AM EST 7:14 PM EST
Moon No Moon Rise 10:39 AM EST (2/2)
Length of Visible Light 11h 12m
Length of Day
10h 16m
Waning Gibbous, 60% of the Moon is Illuminated
Feb 2
Waning Gibbous
Feb 3
Last Quarter
Feb 10
New
Feb 17
First Quarter
Feb 25
Full

Hourly Weather History & Observations

Time (EST) Temp. Windchill Dew Point Humidity Pressure Visibility Wind Dir Wind Speed Gust Speed Precip Events Conditions
12:53 AM 7.0 °F - 1.0 °F 77% 30.37 in 10.0 mi Calm Calm - N/A   Clear
1:53 AM 6.1 °F -0.9 °F -0.0 °F 76% 30.36 in 10.0 mi South 3.5 mph - N/A   Clear
2:53 AM 5.0 °F -2.1 °F -0.0 °F 80% 30.35 in 10.0 mi South 3.5 mph - N/A   Clear
3:53 AM 5.0 °F - -0.0 °F 80% 30.34 in 10.0 mi Calm Calm - N/A   Clear
4:53 AM 7.0 °F - -0.9 °F 70% 30.32 in 10.0 mi Calm Calm - N/A   Clear
5:53 AM 8.1 °F 1.4 °F 1.0 °F 73% 30.31 in 10.0 mi SSW 3.5 mph - N/A   Clear
6:53 AM 7.0 °F - -0.0 °F 73% 30.30 in 10.0 mi Calm Calm - N/A   Clear
7:53 AM 10.0 °F - 1.9 °F 70% 30.30 in 10.0 mi Calm Calm - N/A   Partly Cloudy
8:53 AM 14.0 °F 5.1 °F 3.9 °F 64% 30.29 in 10.0 mi SSW 5.8 mph - N/A   Scattered Clouds
9:53 AM 17.1 °F 6.6 °F 6.1 °F 62% 30.27 in 10.0 mi SSW 8.1 mph - N/A   Overcast
10:53 AM 19.9 °F 8.6 °F 8.1 °F 60% 30.23 in 10.0 mi SSW 10.4 mph - N/A   Partly Cloudy
11:53 AM 21.9 °F 10.4 °F 9.0 °F 58% 30.19 in 10.0 mi SSW 11.5 mph - N/A   Unknown
12:50 PM 21.2 °F 6.8 °F 12.2 °F 68% 30.10 in 1.8 mi SSW 17.3 mph - 0.00 in Snow Light Snow
12:53 PM 21.9 °F 11.0 °F 12.0 °F 66% 30.14 in 1.5 mi SSW 10.4 mph - 0.00 in Snow Light Snow
1:07 PM 21.2 °F 11.7 °F 12.2 °F 68% 30.08 in 2.0 mi SSW 8.1 mph - 0.00 in Snow Light Snow
1:20 PM 21.2 °F 8.9 °F 12.2 °F 68% 30.07 in 1.0 mi South 12.7 mph - 0.00 in Snow Light Snow
1:53 PM 21.9 °F 11.0 °F 16.0 °F 78% 30.09 in 1.0 mi SSW 10.4 mph - 0.00 in Snow Light Snow
2:53 PM 23.0 °F 13.9 °F 18.0 °F 81% 30.05 in 1.0 mi SSW 8.1 mph - 0.00 in Snow Light Snow
3:53 PM 25.0 °F 18.1 °F 19.0 °F 78% 30.04 in 8.0 mi SSW 5.8 mph - 0.00 in   Overcast
4:01 PM 24.8 °F 14.6 °F 19.4 °F 80% 29.99 in 10.0 mi SW 10.4 mph 16.1 mph N/A   Overcast
4:53 PM 25.0 °F 17.1 °F 19.9 °F 81% 30.03 in 3.0 mi SSW 6.9 mph - 0.00 in Snow Light Snow
5:00 PM 24.8 °F 16.1 °F 19.4 °F 80% 29.98 in 1.8 mi SSW 8.1 mph - 0.00 in Snow Light Snow
5:08 PM 24.8 °F 16.9 °F 19.4 °F 80% 29.98 in 2.0 mi SSW 6.9 mph - 0.00 in Snow Light Snow
5:37 PM 24.8 °F 17.9 °F 21.2 °F 86% 29.98 in 1.2 mi South 5.8 mph - 0.00 in Snow Light Snow
5:46 PM 24.8 °F 19.1 °F 21.2 °F 86% 29.98 in 3.0 mi SSW 4.6 mph - 0.00 in Snow Light Snow
5:53 PM 25.0 °F 17.1 °F 21.0 °F 85% 30.01 in 4.0 mi South 6.9 mph - 0.00 in Snow Light Snow
6:05 PM 24.8 °F 17.9 °F 21.2 °F 86% 29.98 in 2.0 mi SSW 5.8 mph - 0.00 in Snow Light Snow
6:19 PM 24.8 °F 19.1 °F 21.2 °F 86% 29.98 in 3.0 mi SW 4.6 mph - 0.00 in Snow Light Snow
6:43 PM 26.6 °F 17.5 °F 21.2 °F 80% 29.99 in 1.8 mi SW 9.2 mph - 0.00 in Snow Light Snow
6:53 PM 26.1 °F 18.4 °F 21.9 °F 84% 30.03 in 2.5 mi SW 6.9 mph - 0.00 in Snow Light Snow
7:03 PM 26.6 °F 17.5 °F 21.2 °F 80% 29.99 in 3.0 mi SW 9.2 mph - 0.00 in Snow Light Snow
7:08 PM 26.6 °F 18.2 °F 21.2 °F 80% 29.99 in 2.5 mi SW 8.1 mph - 0.00 in Snow Light Snow
7:19 PM 26.6 °F 19.1 °F 21.2 °F 80% 29.99 in 1.2 mi SW 6.9 mph - 0.00 in Snow Light Snow
7:53 PM 26.1 °F 18.4 °F 23.0 °F 88% 30.04 in 1.2 mi SW 6.9 mph - 0.00 in Snow Light Snow
8:21 PM 26.6 °F 19.1 °F 23.0 °F 86% 29.99 in 1.2 mi SW 6.9 mph - 0.00 in Snow Light Snow
8:42 PM 26.6 °F 18.2 °F 23.0 °F 86% 29.98 in 1.8 mi SW 8.1 mph - 0.00 in Snow Light Snow
8:50 PM 26.6 °F 19.1 °F 23.0 °F 86% 29.98 in 2.5 mi SW 6.9 mph - 0.00 in Snow Light Snow
8:53 PM 26.1 °F 18.4 °F 23.0 °F 88% 30.02 in 3.0 mi SW 6.9 mph - 0.00 in Snow Light Snow
9:00 PM 26.6 °F 19.1 °F 23.0 °F 86% 29.98 in 2.5 mi SW 6.9 mph - 0.00 in Snow Light Snow
9:29 PM 26.6 °F 21.2 °F 24.8 °F 93% 29.98 in 1.8 mi SW 4.6 mph - 0.00 in Snow Light Snow
9:37 PM 26.6 °F 19.1 °F 23.0 °F 86% 29.98 in 2.5 mi WSW 6.9 mph - 0.00 in Snow Light Snow
9:45 PM 26.6 °F 21.2 °F 24.8 °F 93% 29.98 in 1.8 mi SW 4.6 mph - 0.00 in Snow Light Snow
9:53 PM 27.0 °F 20.5 °F 24.1 °F 89% 30.01 in 1.8 mi SW 5.8 mph - 0.00 in Snow Light Snow
10:53 PM 26.1 °F 20.5 °F 24.1 °F 92% 30.00 in 10.0 mi SW 4.6 mph - 0.00 in   Overcast
11:01 PM 26.6 °F 21.2 °F 24.8 °F 93% 29.97 in 10.0 mi SW 4.6 mph - N/A   Overcast
11:12 PM 26.6 °F 20.0 °F 24.8 °F 93% 29.96 in 8.0 mi SW 5.8 mph - N/A   Overcast
11:53 PM 27.0 °F 20.5 °F 24.1 °F 89% 29.99 in 10.0 mi WSW 5.8 mph - N/A   Overcast